Weather observations for the past three days for
Naples, Naples Municipal Airport
Metric (Imperial)
Date Time (edt) Wind (kph) Vis. (km) Weather Sky Cond. Temperature (ºC) Relative Humidity Wind Chill (°C) Heat Index (°C) Pressure Precipitation (cm)
Air Dwpt 6 hour altimeter (cm) sea level (mb) 1 hr 3 hr 6 hr
Max. Min.
08 16:53 W 13 16.09 Fair CLR 30 22.8 65% 34 75.92 1012.1
08 15:53 W 17 16.09 Fair CLR 30 22.8 65% 34 75.97 1012.8
08 14:53 W 19 16.09 A Few Clouds FEW035 30.6 22.8 63% 35 76.05 1013.8
08 13:53 W 17 16.09 Fair CLR 30 22.2 31.1 23.9 63% 33 76.1 1014.4
08 12:53 W 17 16.09 Fair CLR 30 22.8 65% 34 76.15 1015.2
08 11:53 W 9 16.09 Partly Cloudy SCT034 30 22.8 65% 34 76.2 1015.9
08 10:53 Calm 16.09 Partly Cloudy SCT028 29.4 22.2 65% 33 76.25 1016.3
08 09:53 NE 9 16.09 Fair CLR 27.8 22.2 72% 30 76.23 1016.2
08 08:53 N 7 16.09 Fair CLR 25.6 23.3 87% 27 76.23 1016.0
08 07:53 E 6 11.27 Fair CLR 23.9 23.3 24.4 22.8 96% 23 76.17 1015.4
08 06:53 E 6 9.66 Fog/Mist CLR 22.8 22.2 96% 76.12 1014.7
08 05:53 E 9 11.27 Fair CLR 22.8 22.8 100% 76.05 1013.8
08 04:53 NE 6 11.27 Fair CLR 23.9 23.3 96% 23 76.05 1013.7
08 03:53 Calm 8.05 Fog/Mist CLR 23.3 22.8 97% 76.05 1013.7
08 02:53 Calm 12.87 Fair CLR 23.9 23.3 96% 23 76.05 1013.9
08 01:53 Calm 12.87 Fair CLR 24.4 23.9 27.2 23.9 97% 24 76.07 1014.2
08 00:53 W 7 12.87 Fair CLR 24.4 23.9 97% 24 76.12 1014.6
07 23:53 W 7 12.87 Fair CLR 24.4 23.9 97% 24 76.12 1014.8
07 22:53 Calm 14.48 Fair CLR 25 23.9 94% 26 76.12 1014.7
07 21:53 NW 6 16.09 Fair CLR 25.6 23.9 90% 27 76.1 1014.4
07 20:53 NW 7 16.09 Fair CLR 26.1 23.9 88% 28 76.1 1014.4
07 19:53 NW 13 16.09 Fair CLR 27.2 23.3 30 27.2 79% 30 76.1 1014.3
07 18:53 SW 13 16.09 Fair CLR 27.8 23.3 77% 31 76.07 1014.0
07 17:53 W 13 16.09 Fair CLR 29.4 23.9 72% 34 76.1 1014.3
07 16:53 W 13 16.09 Fair CLR 28.9 23.3 72% 33 76.1 1014.3
07 15:53 W 15 16.09 Fair CLR 29.4 23.3 70% 34 76.12 1014.7
07 14:53 SW 15 16.09 Fair CLR 28.9 23.3 72% 33 76.17 1015.3
07 13:53 W 13 16.09 Fair CLR 30 22.8 30 24.4 65% 34 76.23 1016.1
07 12:53 SW 15 G 28 16.09 Fair CLR 29.4 22.8 68% 33 76.25 1016.3
07 11:53 SW 13 16.09 Fair CLR 28.3 23.3 74% 32 76.28 1016.6
07 10:53 SW 11 16.09 Partly Cloudy SCT021 27.8 23.3 77% 31 76.28 1016.7
07 09:53 SW 13 16.09 Mostly Cloudy SCT023 BKN029 27.2 23.3 79% 30 76.28 1016.7
07 08:53 E 6 16.09 Fair CLR 26.1 23.3 85% 28 76.25 1016.4
07 07:53 E 6 16.09 Fair CLR 24.4 22.8 24.4 22.2 91% 24 76.23 1016.2
07 06:53 Calm 11.27 Fair CLR 22.8 22.2 96% 76.17 1015.5
07 05:53 SE 7 12.87 Fair CLR 22.8 21.7 94% 76.1 1014.5
07 04:53 SE 7 12.87 Fair CLR 22.2 21.7 97% 76.12 1014.6
07 03:53 E 6 14.48 Fair CLR 22.8 21.7 94% 76.12 1014.7
07 02:53 Calm 12.87 Fair CLR 23.3 21.7 91% 76.15 1015.1
07 01:53 E 6 14.48 Fair CLR 23.9 22.2 26.1 23.9 90% 23 76.2 1015.6
07 00:53 Calm 16.09 Fair CLR 24.4 22.2 88% 25 76.17 1015.6
06 23:53 SE 6 16.09 Fair CLR 25 22.2 85% 26 76.23 1016.0
06 22:53 Calm 16.09 Partly Cloudy SCT060 25.6 22.2 82% 27 76.23 1016.2
06 21:53 Calm 16.09 Mostly Cloudy BKN055 25.6 22.2 82% 27 76.2 1015.8
06 20:53 Calm 16.09 Fair CLR 26.1 22.8 82% 28 76.2 1015.6
06 19:53 W 9 16.09 Fair CLR 26.1 22.2 30 26.1 79% 28 76.17 1015.3
06 18:53 W 13 16.09 Fair CLR 27.8 22.2 72% 30 76.17 1015.3
06 17:53 SW 19 16.09 Fair CLR 28.3 21.7 67% 31 76.15 1015.0
06 16:53 SW 17 16.09 Fair CLR 28.3 21.7 67% 31 76.15 1014.9
06 15:53 SW 24 16.09 Fair CLR 29.4 22.2 65% 33 76.17 1015.3
06 14:53 SW 26 16.09 Fair CLR 29.4 21.7 63% 32 76.23 1016.1
06 13:53 SW 24 16.09 Fair CLR 29.4 22.2 30 23.3 65% 33 76.28 1016.7
06 12:53 S 20 16.09 A Few Clouds FEW034 29.4 22.8 68% 33 76.3 1017.0
06 11:53 S 17 G 31 16.09 Partly Cloudy SCT030 28.9 22.2 67% 32 76.3 1017.0
06 10:53 S 9 16.09 Mostly Cloudy BKN025 27.8 22.2 72% 30 76.28 1016.9
06 09:53 SE 13 16.09 Fair CLR 26.7 22.8 79% 29 76.25 1016.6
06 08:53 E 15 16.09 Fair CLR 25.6 22.8 85% 27 76.23 1016.1
06 07:53 E 11 16.09 Fair CLR 23.3 22.2 23.9 21.7 94% 76.2 1015.7
06 06:53 E 11 12.87 Fair CLR 22.2 21.7 97% 76.17 1015.5
06 05:53 E 9 14.48 Fair CLR 22.2 21.1 94% 76.15 1015.0
06 04:53 NE 7 14.48 Fair CLR 22.2 21.1 94% 76.12 1014.9
06 03:53 NE 7 14.48 Fair CLR 22.8 21.1 90% 76.15 1015.1
06 02:53 E 9 14.48 Fair CLR 22.8 21.1 90% 76.15 1014.9
06 01:53 E 13 16.09 Fair CLR 23.9 21.1 26.1 23.9 84% 24 76.17 1015.3
06 00:53 E 13 16.09 Fair CLR 23.9 21.1 84% 24 76.17 1015.5
05 23:53 E 15 16.09 Fair CLR 25 21.1 79% 26 76.2 1015.8
05 22:53 NE 7 16.09 Partly Cloudy SCT041 25.6 21.1 76% 27 76.2 1015.6
05 21:53 Calm 16.09 Mostly Cloudy SCT037 BKN045 25.6 21.1 76% 27 76.15 1015.2
05 20:53 NW 6 16.09 A Few Clouds FEW055 25.6 21.7 79% 27 76.1 1014.4
05 19:53 NW 13 16.09 Fair CLR 26.1 21.1 28.9 26.1 74% 28 76.07 1014.2
05 18:53 W 19 16.09 Fair CLR 26.7 21.1 71% 28 76.05 1013.7
05 17:53 W 20 16.09 Fair CLR 27.8 21.1 67% 30 76.02 1013.5
Date Time (edt) Wind (kph) Vis. (km) Weather Sky Cond. Air Dwpt Max. Min. Relative Humidity Wind Chill (°C) Heat Index (°C) altimeter (cm) sea level (mb) 1 hr 3 hr 6 hr
6 hour
Temperature (ºC) Pressure Precipitation (cm)